Showing default

OSCAR 3, 1293

Orbit data source: Space-Track

OSCAR 3, 1293 is a payload satellite owned by OSCAR (US) in LEO that was launched on Tue, 09 Mar 1965 UTC via a THOR SLV-2 AGENA D launch vehicle from the Air Force Western Test Range (AFWTR). Payload-class satellites include a variety of spacecraft equipped with specific instruments for various scientific and technological missions. These include communications satellites like Starlink; space stations such as the ISS; scientific satellites like the Hubble; Earth observation satellites from companies like Planet Labs, Umbra, and HawkEye 360; GPS; miniature CubeSats for education and research; and military/defense satellites.

Loading next visibility...
Identifier
1293, 1965-016F
Orbit
LEO
Country
Flag of USUS
Related business
Manufacturer
OSCAR
Mission
Non-operational spacecraft
Bus & Motor
OSCAR, Unknown motor
Mass
15 kg wet, 15 kg dry
Launch date (UTC)
1965-03-09 (61 years ago)
Launch vehicle
THOR SLV-2 AGENA D
Launch site
Air Force Western Test Range (AFWTR)
Object type
Payload
Rocket body
Debris
Shape & HBR
Unknown
Radar Cross Section
Medium (>0.1 m² and <1 m²)

Expand to show TLE details & history
Last TLE update: 12 hours ago

TLE from 12 hours ago
0 OSCAR 3
1 01293U 65016F   25308.02117880  .00000558  00000-0  35784-3 0  9996
2 01293  70.0724 168.8741 0014396  89.2929 270.9833 14.08255464100387
Epoch: 2025-11-04T00:30Z
TLE epoch observation values (Epoch: 2025-11-04T00:30:29.848Z)
Latitude
-0.00002°
Longitude
117.73554°
Altitude
867.514 km
Speed
7.419 km/s
True Right ascension
11h 15m 29s
True Declination
0° 00' 00"
Sunlit
Object was in daylight at epoch
Visualization orbit readout
Latitude
Unknown
Longitude
Unknown
Altitude
Unknown
Speed
Unknown
Apparent Right ascension
Unknown
Apparent Declination
Unknown
Sunlit
N/A
Visualization observer readout
Local Sidereal Time
08:40:54
Azimuth
Unknown
Elevation
Unknown
Doppler factor
Unknown
Orbital elements
Apogee altitude
873.797 km
Perigee altitude
852.947 km
Semi-major axis
7,241.509 km
Eccentricity
0.00144
Inclination
70.0724°
RAAN
168.8741°
Arg. of periapsis
89.2929°
True anomaly
270.81835°
Mean anomaly
270.9833°
Eccentric anomaly
270.90083°
Mean motion
3.52208 °/min
Orbital period
102.21 mins
BSTAR
0.00035784
Loading maneuver chart data...
Computing Atmospheric mass density...
Loading historical data...
Loading historical data...
Loading historical data...
Loading historical data...
Loading historical data...
Loading historical data...
Loading historical data...

Documentation

Showing up to 5 results
|